Location: Newark
(51.8900°N, 2.0780°W)
Time: 12:42:40
(UTC+00:00)

Envisat - Pass Details

Date: 26 November 2019
Orbit: 764 x 766 km, 98.1° (Epoch: 07 December)

Event Time Altitude Azimuth Distance (km) Brightness Sun altitude
Rises 19:38:18 0° 219° (SW) 3,224 6.6 -32.1°
Reaches altitude 10° 19:41:49 10° 245° (WSW) 2,304 6.1 -32.6°
Maximum altitude 19:44:21 14° 275° (W) 2,055 6.0 -33.0°
Drops below altitude 10° 19:46:54 10° 306° (NW) 2,312 6.1 -33.4°
Sets 19:50:28 0° 331° (NNW) 3,244 6.7 -34.0°
